owner,sensor,date,latitude,longitude,vertical_datum,mass_concentration_of_oxygen_in_sea_water,qcFlag 
NERRS,ioos:station:NOAA.NERRS:rkblhwq:1,2019-05-08T16:45:00Z,26.0257,-81.7332,1.39,5.4,11111222 
NERRS,ioos:station:NOAA.NERRS:rkblhwq:1,2019-05-16T16:45:00Z,26.0257,-81.7332,1.69,4.9,11111222 
NERRS,ioos:station:NOAA.NERRS:rkblhwq:1,2019-05-16T17:45:00Z,26.0257,-81.7332,1.64,5.1,11111222 
NERRS,ioos:station:NOAA.NERRS:rkblhwq:1,2019-05-16T18:45:00Z,26.0257,-81.7332,1.53,5.7,11111222 
NERRS,ioos:station:NOAA.NERRS:rkblhwq:1,2019-05-16T19:45:00Z,26.0257,-81.7332,1.38,5.6,11111222 
NERRS,ioos:station:NOAA.NERRS:rkblhwq:1,2019-05-16T20:45:00Z,26.0257,-81.7332,1.22,5.7,11111222 
NERRS,ioos:station:NOAA.NERRS:rkblhwq:1,2019-05-16T21:45:00Z,26.0257,-81.7332,1.06,5.8,11111222 
NERRS,ioos:station:NOAA.NERRS:rkblhwq:1,2019-05-16T22:45:00Z,26.0257,-81.7332,0.92,6.0,11111222 
NERRS,ioos:station:NOAA.NERRS:rkblhwq:1,2019-05-16T23:45:00Z,26.0257,-81.7332,0.84,5.8,11111222 
NERRS,ioos:station:NOAA.NERRS:rkblhwq:1,2019-05-17T00:45:00Z,26.0257,-81.7332,0.89,5.7,11111222 
NERRS,ioos:station:NOAA.NERRS:rkblhwq:1,2019-05-17T01:45:00Z,26.0257,-81.7332,1.01,5.4,11111222 
NERRS,ioos:station:NOAA.NERRS:rkblhwq:1,2019-05-17T02:45:00Z,26.0257,-81.7332,1.16,5.2,11111222 
NERRS,ioos:station:NOAA.NERRS:rkblhwq:1,2019-05-17T03:45:00Z,26.0257,-81.7332,1.32,5.0,11111222 
NERRS,ioos:station:NOAA.NERRS:rkblhwq:1,2019-05-17T04:45:00Z,26.0257,-81.7332,1.46,5.0,11111222 
NERRS,ioos:station:NOAA.NERRS:rkblhwq:1,2019-05-17T05:45:00Z,26.0257,-81.7332,1.54,4.7,11111222 
NERRS,ioos:station:NOAA.NERRS:rkblhwq:1,2019-05-17T06:45:00Z,26.0257,-81.7332,1.51,4.6,11111222 
NERRS,ioos:station:NOAA.NERRS:rkblhwq:1,2019-05-17T07:45:00Z,26.0257,-81.7332,1.4,4.7,11111222 
NERRS,ioos:station:NOAA.NERRS:rkblhwq:1,2019-05-17T08:45:00Z,26.0257,-81.7332,1.28,4.0,11111222 
NERRS,ioos:station:NOAA.NERRS:rkblhwq:1,2019-05-17T09:45:00Z,26.0257,-81.7332,1.17,4.0,11111222 
NERRS,ioos:station:NOAA.NERRS:rkblhwq:1,2019-05-17T10:45:00Z,26.0257,-81.7332,1.09,3.7,11111222 
NERRS,ioos:station:NOAA.NERRS:rkblhwq:1,2019-05-17T11:45:00Z,26.0257,-81.7332,1.07,4.0,11111222 
NERRS,ioos:station:NOAA.NERRS:rkblhwq:1,2019-05-17T12:45:00Z,26.0257,-81.7332,1.17,4.2,11111222 
NERRS,ioos:station:NOAA.NERRS:rkblhwq:1,2019-05-17T13:45:00Z,26.0257,-81.7332,1.32,4.4,11111222 
NERRS,ioos:station:NOAA.NERRS:rkblhwq:1,2019-05-17T14:45:00Z,26.0257,-81.7332,1.48,4.7,11111222 
NERRS,ioos:station:NOAA.NERRS:rkblhwq:1,2019-05-17T15:45:00Z,26.0257,-81.7332,1.63,5.1,11111222 
NERRS,ioos:station:NOAA.NERRS:rkblhwq:1,2019-05-17T16:45:00Z,26.0257,-81.7332,1.72,5.5,11111222 
NERRS,ioos:station:NOAA.NERRS:rkblhwq:1,2019-05-17T18:45:00Z,26.0257,-81.7332,1.62,6.2,11111222 
NERRS,ioos:station:NOAA.NERRS:rkblhwq:1,2019-05-17T19:45:00Z,26.0257,-81.7332,1.48,6.7,11111222 
NERRS,ioos:station:NOAA.NERRS:rkblhwq:1,2019-05-17T20:45:00Z,26.0257,-81.7332,1.31,6.6,11111222 
NERRS,ioos:station:NOAA.NERRS:rkblhwq:1,2019-05-17T21:45:00Z,26.0257,-81.7332,1.14,6.6,11111222 
NERRS,ioos:station:NOAA.NERRS:rkblhwq:1,2019-05-17T22:45:00Z,26.0257,-81.7332,1.0,7.0,11111222 
NERRS,ioos:station:NOAA.NERRS:rkblhwq:1,2019-05-17T23:45:00Z,26.0257,-81.7332,0.87,7.0,11111222 
NERRS,ioos:station:NOAA.NERRS:rkblhwq:1,2019-05-18T00:45:00Z,26.0257,-81.7332,0.8,6.3,11111222 
NERRS,ioos:station:NOAA.NERRS:rkblhwq:1,2019-05-18T01:45:00Z,26.0257,-81.7332,0.89,6.2,11111222 
NERRS,ioos:station:NOAA.NERRS:rkblhwq:1,2019-05-18T02:45:00Z,26.0257,-81.7332,1.03,5.8,11111222 
NERRS,ioos:station:NOAA.NERRS:rkblhwq:1,2019-05-18T03:45:00Z,26.0257,-81.7332,1.19,5.8,11111222 
NERRS,ioos:station:NOAA.NERRS:rkblhwq:1,2019-05-18T04:45:00Z,26.0257,-81.7332,1.35,5.6,11111222 
NERRS,ioos:station:NOAA.NERRS:rkblhwq:1,2019-05-18T05:45:00Z,26.0257,-81.7332,1.48,5.4,11111222 
NERRS,ioos:station:NOAA.NERRS:rkblhwq:1,2019-05-18T06:45:00Z,26.0257,-81.7332,1.52,4.6,11111222 
NERRS,ioos:station:NOAA.NERRS:rkblhwq:1,2019-05-18T07:45:00Z,26.0257,-81.7332,1.44,5.2,11111222 
NERRS,ioos:station:NOAA.NERRS:rkblhwq:1,2019-05-18T08:45:00Z,26.0257,-81.7332,1.34,5.2,11111222 
NERRS,ioos:station:NOAA.NERRS:rkblhwq:1,2019-05-18T09:45:00Z,26.0257,-81.7332,1.23,4.9,11111222 
NERRS,ioos:station:NOAA.NERRS:rkblhwq:1,2019-05-18T10:45:00Z,26.0257,-81.7332,1.13,4.6,11111222 
NERRS,ioos:station:NOAA.NERRS:rkblhwq:1,2019-05-18T11:45:00Z,26.0257,-81.7332,1.06,4.3,11111222 
NERRS,ioos:station:NOAA.NERRS:rkblhwq:1,2019-05-18T12:45:00Z,26.0257,-81.7332,1.1,4.6,11111222 
NERRS,ioos:station:NOAA.NERRS:rkblhwq:1,2019-05-18T13:45:00Z,26.0257,-81.7332,1.23,4.8,11111222 
NERRS,ioos:station:NOAA.NERRS:rkblhwq:1,2019-05-18T14:45:00Z,26.0257,-81.7332,1.39,4.9,11111222 
NERRS,ioos:station:NOAA.NERRS:rkblhwq:1,2019-05-18T15:45:00Z,26.0257,-81.7332,1.55,5.3,11111222 
NERRS,ioos:station:NOAA.NERRS:rkblhwq:1,2019-05-18T16:45:00Z,26.0257,-81.7332,1.66,5.5,11111222 
NERRS,ioos:station:NOAA.NERRS:rkblhwq:1,2019-05-18T17:45:00Z,26.0257,-81.7332,1.71,5.7,11111222 
NERRS,ioos:station:NOAA.NERRS:rkblhwq:1,2019-05-18T18:45:00Z,26.0257,-81.7332,1.65,6.1,11111222 
NERRS,ioos:station:NOAA.NERRS:rkblhwq:1,2019-05-18T19:45:00Z,26.0257,-81.7332,1.53,6.3,11111222 
NERRS,ioos:station:NOAA.NERRS:rkblhwq:1,2019-05-18T20:45:00Z,26.0257,-81.7332,1.38,6.6,11111222 
NERRS,ioos:station:NOAA.NERRS:rkblhwq:1,2019-05-18T21:45:00Z,26.0257,-81.7332,1.21,6.3,11111222 
NERRS,ioos:station:NOAA.NERRS:rkblhwq:1,2019-05-18T22:45:00Z,26.0257,-81.7332,1.04,6.3,11111222 
NERRS,ioos:station:NOAA.NERRS:rkblhwq:1,2019-05-18T23:45:00Z,26.0257,-81.7332,0.9,6.2,11111222 
NERRS,ioos:station:NOAA.NERRS:rkblhwq:1,2019-05-19T00:45:00Z,26.0257,-81.7332,0.8,6.5,11111222 
NERRS,ioos:station:NOAA.NERRS:rkblhwq:1,2019-05-19T01:45:00Z,26.0257,-81.7332,0.76,5.5,11111222 
NERRS,ioos:station:NOAA.NERRS:rkblhwq:1,2019-05-19T02:45:00Z,26.0257,-81.7332,0.87,5.7,11111222 
NERRS,ioos:station:NOAA.NERRS:rkblhwq:1,2019-05-19T03:45:00Z,26.0257,-81.7332,1.01,5.3,11111222 
NERRS,ioos:station:NOAA.NERRS:rkblhwq:1,2019-05-19T04:45:00Z,26.0257,-81.7332,1.18,5.4,11111222 
NERRS,ioos:station:NOAA.NERRS:rkblhwq:1,2019-05-19T05:45:00Z,26.0257,-81.7332,1.35,5.2,11111222 
NERRS,ioos:station:NOAA.NERRS:rkblhwq:1,2019-05-19T06:45:00Z,26.0257,-81.7332,1.49,5.2,11111222 
NERRS,ioos:station:NOAA.NERRS:rkblhwq:1,2019-05-19T07:45:00Z,26.0257,-81.7332,1.56,4.5,11111222 
NERRS,ioos:station:NOAA.NERRS:rkblhwq:1,2019-05-19T08:45:00Z,26.0257,-81.7332,1.47,5.0,11111222 
NERRS,ioos:station:NOAA.NERRS:rkblhwq:1,2019-05-19T09:45:00Z,26.0257,-81.7332,1.37,4.8,11111222 
NERRS,ioos:station:NOAA.NERRS:rkblhwq:1,2019-05-19T10:45:00Z,26.0257,-81.7332,1.25,4.4,11111222 
NERRS,ioos:station:NOAA.NERRS:rkblhwq:1,2019-05-19T11:45:00Z,26.0257,-81.7332,1.16,4.0,11111222 
NERRS,ioos:station:NOAA.NERRS:rkblhwq:1,2019-05-19T12:45:00Z,26.0257,-81.7332,1.14,3.9,11111222 
NERRS,ioos:station:NOAA.NERRS:rkblhwq:1,2019-05-19T13:45:00Z,26.0257,-81.7332,1.23,4.5,11111222 
NERRS,ioos:station:NOAA.NERRS:rkblhwq:1,2019-05-19T14:45:00Z,26.0257,-81.7332,1.38,4.7,11111222 
NERRS,ioos:station:NOAA.NERRS:rkblhwq:1,2019-05-19T15:45:00Z,26.0257,-81.7332,1.53,5.0,11111222 
NERRS,ioos:station:NOAA.NERRS:rkblhwq:1,2019-05-19T16:45:00Z,26.0257,-81.7332,1.66,5.3,11111222 
NERRS,ioos:station:NOAA.NERRS:rkblhwq:1,2019-05-19T17:45:00Z,26.0257,-81.7332,1.73,5.6,11111222 
NERRS,ioos:station:NOAA.NERRS:rkblhwq:1,2019-05-19T18:45:00Z,26.0257,-81.7332,1.74,4.5,11111222 
NERRS,ioos:station:NOAA.NERRS:rkblhwq:1,2019-05-19T19:45:00Z,26.0257,-81.7332,1.66,5.8,11111222 
NERRS,ioos:station:NOAA.NERRS:rkblhwq:1,2019-05-19T20:45:00Z,26.0257,-81.7332,1.52,6.1,11111222 
NERRS,ioos:station:NOAA.NERRS:rkblhwq:1,2019-05-19T21:45:00Z,26.0257,-81.7332,1.35,6.2,11111222 
NERRS,ioos:station:NOAA.NERRS:rkblhwq:1,2019-05-19T22:45:00Z,26.0257,-81.7332,1.18,6.0,11111222 
NERRS,ioos:station:NOAA.NERRS:rkblhwq:1,2019-05-19T23:45:00Z,26.0257,-81.7332,1.02,6.2,11111222 
NERRS,ioos:station:NOAA.NERRS:rkblhwq:1,2019-05-20T00:45:00Z,26.0257,-81.7332,0.89,6.1,11111222 
NERRS,ioos:station:NOAA.NERRS:rkblhwq:1,2019-05-20T01:45:00Z,26.0257,-81.7332,0.78,5.1,11111222 
NERRS,ioos:station:NOAA.NERRS:rkblhwq:1,2019-05-20T02:45:00Z,26.0257,-81.7332,0.77,5.7,11111222 
NERRS,ioos:station:NOAA.NERRS:rkblhwq:1,2019-05-20T03:45:00Z,26.0257,-81.7332,0.88,5.1,11111222 
NERRS,ioos:station:NOAA.NERRS:rkblhwq:1,2019-05-20T04:45:00Z,26.0257,-81.7332,1.03,4.9,11111222 
NERRS,ioos:station:NOAA.NERRS:rkblhwq:1,2019-05-20T05:45:00Z,26.0257,-81.7332,1.18,4.9,11111222 
NERRS,ioos:station:NOAA.NERRS:rkblhwq:1,2019-05-20T06:45:00Z,26.0257,-81.7332,1.34,4.8,11111222 
NERRS,ioos:station:NOAA.NERRS:rkblhwq:1,2019-05-20T07:45:00Z,26.0257,-81.7332,1.45,4.5,11111222 
NERRS,ioos:station:NOAA.NERRS:rkblhwq:1,2019-05-20T08:45:00Z,26.0257,-81.7332,1.44,4.4,11111222 
NERRS,ioos:station:NOAA.NERRS:rkblhwq:1,2019-05-20T09:45:00Z,26.0257,-81.7332,1.35,4.2,11111222 
NERRS,ioos:station:NOAA.NERRS:rkblhwq:1,2019-05-20T10:45:00Z,26.0257,-81.7332,1.27,3.8,11111222 
NERRS,ioos:station:NOAA.NERRS:rkblhwq:1,2019-05-20T11:45:00Z,26.0257,-81.7332,1.19,4.0,11111222 
NERRS,ioos:station:NOAA.NERRS:rkblhwq:1,2019-05-20T12:45:00Z,26.0257,-81.7332,1.13,3.6,11111222 
NERRS,ioos:station:NOAA.NERRS:rkblhwq:1,2019-05-20T13:45:00Z,26.0257,-81.7332,1.12,4.0,11111222 
NERRS,ioos:station:NOAA.NERRS:rkblhwq:1,2019-05-20T14:45:00Z,26.0257,-81.7332,1.22,4.3,11111222 
NERRS,ioos:station:NOAA.NERRS:rkblhwq:1,2019-05-20T15:45:00Z,26.0257,-81.7332,1.37,4.6,11111222 
NERRS,ioos:station:NOAA.NERRS:rkblhwq:1,2019-05-20T16:45:00Z,26.0257,-81.7332,1.51,5.0,11111222 
NERRS,ioos:station:NOAA.NERRS:rkblhwq:1,2019-05-20T17:45:00Z,26.0257,-81.7332,1.62,5.2,11111222 
NERRS,ioos:station:NOAA.NERRS:rkblhwq:1,2019-05-20T18:45:00Z,26.0257,-81.7332,1.66,5.5,11111222 
NERRS,ioos:station:NOAA.NERRS:rkblhwq:1,2019-05-20T19:45:00Z,26.0257,-81.7332,1.61,5.5,11111222 
NERRS,ioos:station:NOAA.NERRS:rkblhwq:1,2019-05-20T20:45:00Z,26.0257,-81.7332,1.5,5.7,11111222 
NERRS,ioos:station:NOAA.NERRS:rkblhwq:1,2019-05-20T21:45:00Z,26.0257,-81.7332,1.36,6.0,11111222 
NERRS,ioos:station:NOAA.NERRS:rkblhwq:1,2019-05-20T22:45:00Z,26.0257,-81.7332,1.2,6.0,11111222 
NERRS,ioos:station:NOAA.NERRS:rkblhwq:1,2019-05-20T23:45:00Z,26.0257,-81.7332,1.05,5.6,11111222 
NERRS,ioos:station:NOAA.NERRS:rkblhwq:1,2019-05-21T00:45:00Z,26.0257,-81.7332,0.91,5.6,11111222 
NERRS,ioos:station:NOAA.NERRS:rkblhwq:1,2019-05-21T01:45:00Z,26.0257,-81.7332,0.8,5.7,11111222 
NERRS,ioos:station:NOAA.NERRS:rkblhwq:1,2019-05-21T02:45:00Z,26.0257,-81.7332,0.72,4.7,11111222 
NERRS,ioos:station:NOAA.NERRS:rkblhwq:1,2019-05-21T03:45:00Z,26.0257,-81.7332,0.78,4.8,11111222 
NERRS,ioos:station:NOAA.NERRS:rkblhwq:1,2019-05-21T04:45:00Z,26.0257,-81.7332,0.9,4.7,11111222 
NERRS,ioos:station:NOAA.NERRS:rkblhwq:1,2019-05-21T05:45:00Z,26.0257,-81.7332,1.04,4.8,11111222 
NERRS,ioos:station:NOAA.NERRS:rkblhwq:1,2019-05-21T06:45:00Z,26.0257,-81.7332,1.22,4.6,11111222 
NERRS,ioos:station:NOAA.NERRS:rkblhwq:1,2019-05-21T07:45:00Z,26.0257,-81.7332,1.38,4.5,11111222 
NERRS,ioos:station:NOAA.NERRS:rkblhwq:1,2019-05-21T08:45:00Z,26.0257,-81.7332,1.47,4.1,11111222 
NERRS,ioos:station:NOAA.NERRS:rkblhwq:1,2019-05-21T09:45:00Z,26.0257,-81.7332,1.45,4.0,11111222 
NERRS,ioos:station:NOAA.NERRS:rkblhwq:1,2019-05-21T10:45:00Z,26.0257,-81.7332,1.37,4.0,11111222 
NERRS,ioos:station:NOAA.NERRS:rkblhwq:1,2019-05-21T11:45:00Z,26.0257,-81.7332,1.3,3.7,11111222 
NERRS,ioos:station:NOAA.NERRS:rkblhwq:1,2019-05-21T12:45:00Z,26.0257,-81.7332,1.23,3.6,11111222 
NERRS,ioos:station:NOAA.NERRS:rkblhwq:1,2019-05-21T13:45:00Z,26.0257,-81.7332,1.19,3.5,11111222 
NERRS,ioos:station:NOAA.NERRS:rkblhwq:1,2019-05-21T14:45:00Z,26.0257,-81.7332,1.24,4.2,11111222 
NERRS,ioos:station:NOAA.NERRS:rkblhwq:1,2019-05-21T15:45:00Z,26.0257,-81.7332,1.35,4.5,11111222 
NERRS,ioos:station:NOAA.NERRS:rkblhwq:1,2019-05-21T16:45:00Z,26.0257,-81.7332,1.49,5.0,11111222 
NERRS,ioos:station:NOAA.NERRS:rkblhwq:1,2019-05-21T17:45:00Z,26.0257,-81.7332,1.6,5.5,11111222 
NERRS,ioos:station:NOAA.NERRS:rkblhwq:1,2019-05-21T18:45:00Z,26.0257,-81.7332,1.67,5.9,11111222 
NERRS,ioos:station:NOAA.NERRS:rkblhwq:1,2019-05-21T19:45:00Z,26.0257,-81.7332,1.68,6.0,11111222 
NERRS,ioos:station:NOAA.NERRS:rkblhwq:1,2019-05-21T20:45:00Z,26.0257,-81.7332,1.61,5.8,11111222 
NERRS,ioos:station:NOAA.NERRS:rkblhwq:1,2019-05-21T21:45:00Z,26.0257,-81.7332,1.49,6.3,11111222 
NERRS,ioos:station:NOAA.NERRS:rkblhwq:1,2019-05-21T22:45:00Z,26.0257,-81.7332,1.35,6.0,11111222 
NERRS,ioos:station:NOAA.NERRS:rkblhwq:1,2019-05-21T23:45:00Z,26.0257,-81.7332,1.19,5.9,11111222 
NERRS,ioos:station:NOAA.NERRS:rkblhwq:1,2019-05-22T00:45:00Z,26.0257,-81.7332,1.04,5.8,11111222 
NERRS,ioos:station:NOAA.NERRS:rkblhwq:1,2019-05-22T01:45:00Z,26.0257,-81.7332,0.91,5.1,11111222 
NERRS,ioos:station:NOAA.NERRS:rkblhwq:1,2019-05-22T02:45:00Z,26.0257,-81.7332,0.8,4.8,11111222 
NERRS,ioos:station:NOAA.NERRS:rkblhwq:1,2019-05-22T04:45:00Z,26.0257,-81.7332,0.85,4.7,11111222 
NERRS,ioos:station:NOAA.NERRS:rkblhwq:1,2019-05-22T05:45:00Z,26.0257,-81.7332,0.98,4.6,11111222 
NERRS,ioos:station:NOAA.NERRS:rkblhwq:1,2019-05-22T06:45:00Z,26.0257,-81.7332,1.13,4.6,11111222 
NERRS,ioos:station:NOAA.NERRS:rkblhwq:1,2019-05-22T07:45:00Z,26.0257,-81.7332,1.28,4.6,11111222 
NERRS,ioos:station:NOAA.NERRS:rkblhwq:1,2019-05-22T08:45:00Z,26.0257,-81.7332,1.39,4.4,11111222 
NERRS,ioos:station:NOAA.NERRS:rkblhwq:1,2019-05-22T09:45:00Z,26.0257,-81.7332,1.45,4.1,11111222 
NERRS,ioos:station:NOAA.NERRS:rkblhwq:1,2019-05-22T10:45:00Z,26.0257,-81.7332,1.4,4.1,11111222 
NERRS,ioos:station:NOAA.NERRS:rkblhwq:1,2019-05-22T11:45:00Z,26.0257,-81.7332,1.33,3.8,11111222 
NERRS,ioos:station:NOAA.NERRS:rkblhwq:1,2019-05-22T12:45:00Z,26.0257,-81.7332,1.26,3.9,11111222 
NERRS,ioos:station:NOAA.NERRS:rkblhwq:1,2019-05-22T13:45:00Z,26.0257,-81.7332,1.21,4.1,11111222 
NERRS,ioos:station:NOAA.NERRS:rkblhwq:1,2019-05-22T14:45:00Z,26.0257,-81.7332,1.23,4.2,11111222 
NERRS,ioos:station:NOAA.NERRS:rkblhwq:1,2019-05-22T15:45:00Z,26.0257,-81.7332,1.31,4.5,11111222 
NERRS,ioos:station:NOAA.NERRS:rkblhwq:1,2019-05-22T16:45:00Z,26.0257,-81.7332,1.41,4.9,11111222 
NERRS,ioos:station:NOAA.NERRS:rkblhwq:1,2019-05-22T17:45:00Z,26.0257,-81.7332,1.52,5.3,11111222 
NERRS,ioos:station:NOAA.NERRS:rkblhwq:1,2019-05-22T18:45:00Z,26.0257,-81.7332,1.61,5.7,11111222 
NERRS,ioos:station:NOAA.NERRS:rkblhwq:1,2019-05-22T19:45:00Z,26.0257,-81.7332,1.64,5.8,11111222 
NERRS,ioos:station:NOAA.NERRS:rkblhwq:1,2019-05-22T20:45:00Z,26.0257,-81.7332,1.61,5.9,11111222 
NERRS,ioos:station:NOAA.NERRS:rkblhwq:1,2019-05-22T21:45:00Z,26.0257,-81.7332,1.51,5.9,11111222 
NERRS,ioos:station:NOAA.NERRS:rkblhwq:1,2019-05-22T22:45:00Z,26.0257,-81.7332,1.39,6.2,11111222 
NERRS,ioos:station:NOAA.NERRS:rkblhwq:1,2019-05-22T23:45:00Z,26.0257,-81.7332,1.25,5.9,11111222 
NERRS,ioos:station:NOAA.NERRS:rkblhwq:1,2019-05-23T00:45:00Z,26.0257,-81.7332,1.12,5.8,11111222 
NERRS,ioos:station:NOAA.NERRS:rkblhwq:1,2019-05-23T01:45:00Z,26.0257,-81.7332,0.99,5.5,11111222 
NERRS,ioos:station:NOAA.NERRS:rkblhwq:1,2019-05-23T02:45:00Z,26.0257,-81.7332,0.88,5.1,11111222 
NERRS,ioos:station:NOAA.NERRS:rkblhwq:1,2019-05-23T03:45:00Z,26.0257,-81.7332,0.79,4.7,11111222 
NERRS,ioos:station:NOAA.NERRS:rkblhwq:1,2019-05-23T04:45:00Z,26.0257,-81.7332,0.76,4.3,11111222 
NERRS,ioos:station:NOAA.NERRS:rkblhwq:1,2019-05-23T05:45:00Z,26.0257,-81.7332,0.84,4.6,11111222 
NERRS,ioos:station:NOAA.NERRS:rkblhwq:1,2019-05-23T06:45:00Z,26.0257,-81.7332,0.95,4.5,11111222 
NERRS,ioos:station:NOAA.NERRS:rkblhwq:1,2019-05-23T07:45:00Z,26.0257,-81.7332,1.06,4.5,11111222 
NERRS,ioos:station:NOAA.NERRS:rkblhwq:1,2019-05-23T08:45:00Z,26.0257,-81.7332,1.19,4.3,11111222 
NERRS,ioos:station:NOAA.NERRS:rkblhwq:1,2019-05-23T09:45:00Z,26.0257,-81.7332,1.3,4.3,11111222 
NERRS,ioos:station:NOAA.NERRS:rkblhwq:1,2019-05-23T10:45:00Z,26.0257,-81.7332,1.39,4.4,11111222 
NERRS,ioos:station:NOAA.NERRS:rkblhwq:1,2019-05-23T11:45:00Z,26.0257,-81.7332,1.41,4.3,11111222 
NERRS,ioos:station:NOAA.NERRS:rkblhwq:1,2019-05-23T12:45:00Z,26.0257,-81.7332,1.33,4.3,11111222 
NERRS,ioos:station:NOAA.NERRS:rkblhwq:1,2019-05-23T13:45:00Z,26.0257,-81.7332,1.25,4.1,11111222 
NERRS,ioos:station:NOAA.NERRS:rkblhwq:1,2019-05-23T14:45:00Z,26.0257,-81.7332,1.19,4.5,11111222 
NERRS,ioos:station:NOAA.NERRS:rkblhwq:1,2019-05-23T15:45:00Z,26.0257,-81.7332,1.18,4.6,11111222 
NERRS,ioos:station:NOAA.NERRS:rkblhwq:1,2019-05-23T16:45:00Z,26.0257,-81.7332,1.26,5.1,11111222 
NERRS,ioos:station:NOAA.NERRS:rkblhwq:1,2019-05-23T17:45:00Z,26.0257,-81.7332,1.35,5.6,11111222 
NERRS,ioos:station:NOAA.NERRS:rkblhwq:1,2019-05-23T18:45:00Z,26.0257,-81.7332,1.44,6.0,11111222 
NERRS,ioos:station:NOAA.NERRS:rkblhwq:1,2019-05-23T19:45:00Z,26.0257,-81.7332,1.51,6.0,11111222 
NERRS,ioos:station:NOAA.NERRS:rkblhwq:1,2019-05-23T20:45:00Z,26.0257,-81.7332,1.53,6.2,11111222 
NERRS,ioos:station:NOAA.NERRS:rkblhwq:1,2019-05-23T21:45:00Z,26.0257,-81.7332,1.47,6.5,11111222 
NERRS,ioos:station:NOAA.NERRS:rkblhwq:1,2019-05-23T22:45:00Z,26.0257,-81.7332,1.38,6.6,11111222 
NERRS,ioos:station:NOAA.NERRS:rkblhwq:1,2019-05-23T23:45:00Z,26.0257,-81.7332,1.27,6.3,11111222 
NERRS,ioos:station:NOAA.NERRS:rkblhwq:1,2019-05-24T00:45:00Z,26.0257,-81.7332,1.15,6.0,11111222 
NERRS,ioos:station:NOAA.NERRS:rkblhwq:1,2019-05-24T01:45:00Z,26.0257,-81.7332,1.03,5.7,11111222 
NERRS,ioos:station:NOAA.NERRS:rkblhwq:1,2019-05-24T02:45:00Z,26.0257,-81.7332,0.92,5.4,11111222 
NERRS,ioos:station:NOAA.NERRS:rkblhwq:1,2019-05-24T03:45:00Z,26.0257,-81.7332,0.81,5.0,11111222 
NERRS,ioos:station:NOAA.NERRS:rkblhwq:1,2019-05-24T04:45:00Z,26.0257,-81.7332,0.72,4.7,11111222 
NERRS,ioos:station:NOAA.NERRS:rkblhwq:1,2019-05-24T05:45:00Z,26.0257,-81.7332,0.71,4.9,11111222 
NERRS,ioos:station:NOAA.NERRS:rkblhwq:1,2019-05-24T06:45:00Z,26.0257,-81.7332,0.79,4.7,11111222 
NERRS,ioos:station:NOAA.NERRS:rkblhwq:1,2019-05-24T07:45:00Z,26.0257,-81.7332,0.9,4.6,11111222 
NERRS,ioos:station:NOAA.NERRS:rkblhwq:1,2019-05-24T08:45:00Z,26.0257,-81.7332,1.01,4.7,11111222 
NERRS,ioos:station:NOAA.NERRS:rkblhwq:1,2019-05-24T09:45:00Z,26.0257,-81.7332,1.12,4.6,11111222 
NERRS,ioos:station:NOAA.NERRS:rkblhwq:1,2019-05-24T10:45:00Z,26.0257,-81.7332,1.23,4.5,11111222 
NERRS,ioos:station:NOAA.NERRS:rkblhwq:1,2019-05-24T11:45:00Z,26.0257,-81.7332,1.32,4.3,11111222 
NERRS,ioos:station:NOAA.NERRS:rkblhwq:1,2019-05-24T12:45:00Z,26.0257,-81.7332,1.33,4.2,11111222 
NERRS,ioos:station:NOAA.NERRS:rkblhwq:1,2019-05-24T13:45:00Z,26.0257,-81.7332,1.27,4.7,11111222 
NERRS,ioos:station:NOAA.NERRS:rkblhwq:1,2019-05-24T14:45:00Z,26.0257,-81.7332,1.24,4.9,11111222 
NERRS,ioos:station:NOAA.NERRS:rkblhwq:1,2019-05-24T15:45:00Z,26.0257,-81.7332,1.26,4.8,11111222 
NERRS,ioos:station:NOAA.NERRS:rkblhwq:1,2019-05-24T16:45:00Z,26.0257,-81.7332,1.3,5.0,11111222 
NERRS,ioos:station:NOAA.NERRS:rkblhwq:1,2019-05-24T17:45:00Z,26.0257,-81.7332,1.34,5.7,11111222 
NERRS,ioos:station:NOAA.NERRS:rkblhwq:1,2019-05-24T18:45:00Z,26.0257,-81.7332,1.41,6.1,11111222 
NERRS,ioos:station:NOAA.NERRS:rkblhwq:1,2019-05-24T19:45:00Z,26.0257,-81.7332,1.47,6.6,11111222 
NERRS,ioos:station:NOAA.NERRS:rkblhwq:1,2019-05-24T20:45:00Z,26.0257,-81.7332,1.51,6.6,11111222 
NERRS,ioos:station:NOAA.NERRS:rkblhwq:1,2019-05-24T21:45:00Z,26.0257,-81.7332,1.51,6.8,11111222 
NERRS,ioos:station:NOAA.NERRS:rkblhwq:1,2019-05-24T22:45:00Z,26.0257,-81.7332,1.43,6.7,11111222 
NERRS,ioos:station:NOAA.NERRS:rkblhwq:1,2019-05-24T23:45:00Z,26.0257,-81.7332,1.34,6.6,11111222 
NERRS,ioos:station:NOAA.NERRS:rkblhwq:1,2019-05-25T00:45:00Z,26.0257,-81.7332,1.25,6.3,11111222 
NERRS,ioos:station:NOAA.NERRS:rkblhwq:1,2019-05-25T01:45:00Z,26.0257,-81.7332,1.14,6.0,11111222 
NERRS,ioos:station:NOAA.NERRS:rkblhwq:1,2019-05-25T02:45:00Z,26.0257,-81.7332,1.04,5.7,11111222 
NERRS,ioos:station:NOAA.NERRS:rkblhwq:1,2019-05-25T03:45:00Z,26.0257,-81.7332,0.94,5.3,11111222 
NERRS,ioos:station:NOAA.NERRS:rkblhwq:1,2019-05-25T04:45:00Z,26.0257,-81.7332,0.85,5.2,11111222 
NERRS,ioos:station:NOAA.NERRS:rkblhwq:1,2019-05-25T05:45:00Z,26.0257,-81.7332,0.79,5.1,11111222 
NERRS,ioos:station:NOAA.NERRS:rkblhwq:1,2019-05-25T06:45:00Z,26.0257,-81.7332,0.82,5.2,11111222 
NERRS,ioos:station:NOAA.NERRS:rkblhwq:1,2019-05-25T07:45:00Z,26.0257,-81.7332,0.91,5.0,11111222 
NERRS,ioos:station:NOAA.NERRS:rkblhwq:1,2019-05-25T08:45:00Z,26.0257,-81.7332,1.01,4.8,11111222 
NERRS,ioos:station:NOAA.NERRS:rkblhwq:1,2019-05-25T09:45:00Z,26.0257,-81.7332,1.12,4.9,11111222 
NERRS,ioos:station:NOAA.NERRS:rkblhwq:1,2019-05-25T10:45:00Z,26.0257,-81.7332,1.23,4.6,11111222 
NERRS,ioos:station:NOAA.NERRS:rkblhwq:1,2019-05-25T11:45:00Z,26.0257,-81.7332,1.33,4.6,11111222 
NERRS,ioos:station:NOAA.NERRS:rkblhwq:1,2019-05-25T12:45:00Z,26.0257,-81.7332,1.41,4.4,11111222 
NERRS,ioos:station:NOAA.NERRS:rkblhwq:1,2019-05-25T13:45:00Z,26.0257,-81.7332,1.39,4.7,11111222 
NERRS,ioos:station:NOAA.NERRS:rkblhwq:1,2019-05-25T14:45:00Z,26.0257,-81.7332,1.32,5.0,11111222 
NERRS,ioos:station:NOAA.NERRS:rkblhwq:1,2019-05-25T15:45:00Z,26.0257,-81.7332,1.27,5.2,11111222 
NERRS,ioos:station:NOAA.NERRS:rkblhwq:1,2019-05-25T16:45:00Z,26.0257,-81.7332,1.25,5.2,11111222 
NERRS,ioos:station:NOAA.NERRS:rkblhwq:1,2019-05-25T17:45:00Z,26.0257,-81.7332,1.23,6.0,11111222 
NERRS,ioos:station:NOAA.NERRS:rkblhwq:1,2019-05-25T18:45:00Z,26.0257,-81.7332,1.25,5.4,11111222 
NERRS,ioos:station:NOAA.NERRS:rkblhwq:1,2019-05-25T19:45:00Z,26.0257,-81.7332,1.31,6.2,11111222 
NERRS,ioos:station:NOAA.NERRS:rkblhwq:1,2019-05-25T20:45:00Z,26.0257,-81.7332,1.38,6.4,11111222 
NERRS,ioos:station:NOAA.NERRS:rkblhwq:1,2019-05-25T21:45:00Z,26.0257,-81.7332,1.43,6.6,11111222 
NERRS,ioos:station:NOAA.NERRS:rkblhwq:1,2019-05-25T22:45:00Z,26.0257,-81.7332,1.43,6.7,11111222 
NERRS,ioos:station:NOAA.NERRS:rkblhwq:1,2019-05-25T23:45:00Z,26.0257,-81.7332,1.38,6.4,11111222 
NERRS,ioos:station:NOAA.NERRS:rkblhwq:1,2019-05-26T00:45:00Z,26.0257,-81.7332,1.32,6.3,11111222 
NERRS,ioos:station:NOAA.NERRS:rkblhwq:1,2019-05-26T01:45:00Z,26.0257,-81.7332,1.24,5.8,11111222 
NERRS,ioos:station:NOAA.NERRS:rkblhwq:1,2019-05-26T02:45:00Z,26.0257,-81.7332,1.16,5.8,11111222 
NERRS,ioos:station:NOAA.NERRS:rkblhwq:1,2019-05-26T03:45:00Z,26.0257,-81.7332,1.06,5.5,11111222 
NERRS,ioos:station:NOAA.NERRS:rkblhwq:1,2019-05-26T04:45:00Z,26.0257,-81.7332,0.96,5.4,11111222 
NERRS,ioos:station:NOAA.NERRS:rkblhwq:1,2019-05-26T05:45:00Z,26.0257,-81.7332,0.88,5.2,11111222 
NERRS,ioos:station:NOAA.NERRS:rkblhwq:1,2019-05-26T06:45:00Z,26.0257,-81.7332,0.83,4.9,11111222 
NERRS,ioos:station:NOAA.NERRS:rkblhwq:1,2019-05-26T07:45:00Z,26.0257,-81.7332,0.88,4.9,11111222 
NERRS,ioos:station:NOAA.NERRS:rkblhwq:1,2019-05-26T08:45:00Z,26.0257,-81.7332,0.98,4.9,11111222 
NERRS,ioos:station:NOAA.NERRS:rkblhwq:1,2019-05-26T09:45:00Z,26.0257,-81.7332,1.11,4.7,11111222 
NERRS,ioos:station:NOAA.NERRS:rkblhwq:1,2019-05-26T10:45:00Z,26.0257,-81.7332,1.26,4.6,11111222 
NERRS,ioos:station:NOAA.NERRS:rkblhwq:1,2019-05-26T11:45:00Z,26.0257,-81.7332,1.39,4.5,11111222 
NERRS,ioos:station:NOAA.NERRS:rkblhwq:1,2019-05-26T12:45:00Z,26.0257,-81.7332,1.48,4.5,11111222 
NERRS,ioos:station:NOAA.NERRS:rkblhwq:1,2019-05-26T13:45:00Z,26.0257,-81.7332,1.51,4.6,11111222 
NERRS,ioos:station:NOAA.NERRS:rkblhwq:1,2019-05-26T14:45:00Z,26.0257,-81.7332,1.47,4.8,11111222 
NERRS,ioos:station:NOAA.NERRS:rkblhwq:1,2019-05-26T15:45:00Z,26.0257,-81.7332,1.4,5.2,11111222 
NERRS,ioos:station:NOAA.NERRS:rkblhwq:1,2019-05-26T16:45:00Z,26.0257,-81.7332,1.32,5.4,11111222 
NERRS,ioos:station:NOAA.NERRS:rkblhwq:1,2019-05-26T17:45:00Z,26.0257,-81.7332,1.26,5.8,11111222 
NERRS,ioos:station:NOAA.NERRS:rkblhwq:1,2019-05-26T18:45:00Z,26.0257,-81.7332,1.23,5.9,11111222 
NERRS,ioos:station:NOAA.NERRS:rkblhwq:1,2019-05-26T19:45:00Z,26.0257,-81.7332,1.27,6.1,11111222 
NERRS,ioos:station:NOAA.NERRS:rkblhwq:1,2019-05-26T20:45:00Z,26.0257,-81.7332,1.33,6.3,11111222 
NERRS,ioos:station:NOAA.NERRS:rkblhwq:1,2019-05-26T21:45:00Z,26.0257,-81.7332,1.39,6.2,11111222 
NERRS,ioos:station:NOAA.NERRS:rkblhwq:1,2019-05-26T22:45:00Z,26.0257,-81.7332,1.45,6.2,11111222 